User: anonymous   Login
Location: Fishcreek Rd Observing Site
(41.1865°N, 81.4271°W)
Time: 05:42:11
(UTC-05:00)
Language:

Iridium 75 - Orbit

View from above orbital plane
View from above orbital plane
View from above satellite
View from above satellite

Ground track
Ground track

The orbit data is extracted from the following two-line orbital elements,

1 25346U 98032E   16041.51712557  .00000069  00000-0  17503-4 0  9992
2 25346  86.3930  70.0737 0002224  93.8480  16.9487 14.34218000929050
Epoch (UTC): 10 February 2016 12:24:39
Eccentricity: 0.0002224
inclination: 86.3930°
perigee height: 776 km
apogee height: 779 km
right ascension of ascending node: 70.0737°
argument of perigee: 93.8480°
revolutions per day: 14.34218000
mean anomaly at epoch: 16.9487°
orbit number at epoch: 92905

The dashed part of the orbit path shows where the satellite is in the earth's shadow,  

DLR